STARLINK-1170, 45073

Orbit data source: Space-Track

STARLINK-1170, 45073 is a payload satellite owned by SpaceX/Seattle (US) in LEO that was launched on Wed, 29 Jan 2020 UTC via an FALCON 9 launch vehicle from the Air Force Eastern Test Range (AFETR). Payloads include a variety of satellites, spacecraft, and rockets equipped with specific instruments for various scientific and technological missions. These include communications satellites like Starlink; space stations such as the ISS; scientific satellites like the Hubble; Earth observation satellites from companies like Planet Labs, Umbra, and HawkEye 360; GPS; miniature CubeSats for education and research; and military/defense satellites.

Loading next visibility...
STARLINK-1170 details
Identifier
45073, 2020-006AF
Orbit
LEO
Last TLE update20 hours ago
Origin
Flag of USSpaceX/Seattle (US)
ManufacturerSpaceX/Seattle
MissionOperational Commercial Communications
Bus & MotorSTARLINK, Unknown motor
Mass260 kg wet, ~248 kg dry
Launch date (UTC)
2020-01-29 (5 years ago)
Launch vehicle
FALCON 9
Launch site
Air Force Eastern Test Range (AFETR)
Object type
Payload
Rocket body
Debris
Shape & HBRBox + 1 Pan, 8.86 m
Radar Cross Section13.562 m², Large (>1 m²)

Expand to show TLE details & history

TLE from 20 hours ago
0 STARLINK-1170
1 45073U 20006AF  24360.60270530  .00029490  00000-0  19906-2 0  9996
2 45073  53.0539  77.7544 0001555  84.5070 275.6096 15.06395749270553
Epoch: 2024-12-25T14:27Z
Definitive object data (Epoch: 2024-12-25T14:27:53.737Z)
Latitude-0.00007°
Longitude126.18635°
Altitude547.999 km
Speed7.589 km/s
True Right ascension05h 11m 01s
True Declination0° 00' 00"
Sunlit
Object was in full shadow at TLE epoch
Visualization TLE readout
Latitude-52.2824°
Longitude17.66782°
Altitude566.286 km
Speed7.577 km/s
Apparent Right ascension22h 01m 09s
Apparent Declination-46° 11' 09"
Sunlit
Object is in daylight
Visualization observer readout
Local Sidereal Time10:04:48
Azimuth174.222° S
Elevation-83.695°
Doppler factor1
Orbital elements
Apogee altitude548.572 km
Perigee altitude546.418 km
Semi-major axis6,925.632 km
Eccentricity0.0001555
Inclination53.0539°
RAAN77.7544°
Arg. of periapsis84.507°
True anomaly275.59187°
Mean anomaly275.6096°
Eccentric anomaly275.60073°
Mean motion3.76577 °/min
BSTAR0.0019906
Orbital period95.6 mins
Loading maneuver chart data...
Loading historical data...
Loading historical data...
Loading historical data...
Loading historical data...
Loading historical data...
Loading historical data...
Loading historical data...

STARLINK-1170 Visibility forecast

Observer location: undefined°, undefined

Span
Click to sort rows by Start time (UTC) header in descending order
Start Az.
Max El. time (UTC)
Max El. Az.
Max El.
End time (UTC)
End Az.
5 mins2024-12-26 13:12:35.046Z345.201° N2024-12-26 13:14:35.046Z22.794° NE19.684°2024-12-26 13:17:35.046Z71.171° E
7 mins2024-12-26 14:51:35.046Z310.243° NW2024-12-26 14:54:35.046Z111.636° ESE44.941°2024-12-26 14:58:35.046Z130.521° SE
7 mins2024-12-27 08:03:35.046Z241.379° WSW2024-12-27 08:06:35.046Z320.964° NNW42.743°2024-12-27 08:10:35.046Z45.874° ENE
4 mins2024-12-27 09:45:35.046Z320.177° NNW2024-12-27 09:46:35.046Z338.79° N17.509°2024-12-27 09:49:35.046Z26.483° NE
|